IU2CMQ-13 Weather Reports


time (UTC)temp
F
wind
direction
speed
knots
gust
knots
rain 1hr
in
rain 24hr
in
rain mn
in
humidity
%
barometer
mb
20260507015814 53 294 5.2 14.8 0.00 5.24 0.01 83 1012.4
20260507015333 53 271 5.2 11.3 0.00 5.24 0.01 83 1012.4
20260507014824 52 327 4.3 7.8 0.00 5.24 0.01 84 1012.3
20260507014321 52 336 2.6 6.1 0.00 5.24 0.01 86 1012.4
20260507013821 52 313 3.5 5.2 0.00 5.24 0.01 87 1012.5
20260507013320 52 286 4.3 6.1 0.00 5.24 0.01 87 1012.5
20260507012817 52 260 5.2 6.1 0.00 5.24 0.01 88 1012.6
20260507012315 51 265 1.7 4.3 0.00 5.24 0.01 88 1012.5
20260507011833 51 252 2.6 5.2 0.00 5.24 0.01 88 1012.4
20260507011330 51 63 0.9 2.6 0.04 5.24 0.01 87 1012.5
20260507010848 52 277 0.0 6.1 0.04 5.24 0.01 87 1012.4
20260507010325 52 277 4.3 6.1 0.04 5.24 0.01 86 1012.5
20260507005823 52 292 3.5 4.3 0.04 5.28 0.01 85 1012.5
20260507005342 53 14 2.6 5.2 0.04 5.28 0.01 83 1012.6
20260507004839 53 300 2.6 8.7 0.04 5.28 0.01 83 1012.6
20260507004357 52 327 4.3 8.7 0.04 5.28 0.01 83 1012.5
20260507003855 52 337 3.5 11.3 0.04 5.28 0.01 84 1012.6
20260507003352 52 340 6.1 11.3 0.04 5.28 0.01 84 1012.6
20260507002829 52 328 5.2 9.6 0.04 5.28 0.01 85 1012.6
20260507002325 52 300 3.5 7.8 0.04 5.28 0.01 86 1012.8
20260507001824 52 313 0.9 3.5 0.04 5.28 0.01 87 1012.8
20260507001341 52 312 1.7 7.8 0.00 5.24 0.00 87 1012.8
20260507000819 52 26 1.7 5.2 0.00 5.24 0.00 87 1012.7
20260507000336 52 321 0.9 7.0 0.00 5.24 0.00 86 1012.8
20260506235837 52 303 2.6 7.0 0.00 5.24 0.00 86 1012.7
20260506235334 52 346 1.7 7.0 0.00 5.24 0.00 86 1012.7
20260506234832 52 265 5.2 10.4 0.00 5.24 0.00 86 1012.6
20260506234330 53 339 6.1 10.4 0.00 5.24 0.00 84 1012.6
20260506233827 53 285 6.1 12.2 0.00 5.24 0.00 83 1012.5
20260506233324 53 22 7.0 11.3 0.00 5.24 0.00 82 1012.6
20260506232822 53 335 6.1 11.3 0.00 5.24 0.00 82 1012.6
20260506232320 53 291 7.8 11.3 0.00 5.24 0.00 82 1012.6
20260506231820 53 245 6.1 13.9 0.00 5.24 0.00 82 1012.7
20260506231335 52 256 8.7 13.9 0.00 5.24 0.00 83 1012.7
20260506230832 52 288 5.2 13.0 0.00 5.24 0.00 84 1012.5
20260506230350 52 245 5.2 7.0 0.00 5.24 0.00 86 1012.5
20260506225827 52 209 3.5 4.3 0.00 5.43 0.00 85 1012.5
20260506225324 52 341 2.6 4.3 0.00 5.43 0.00 85 1012.5
20260506224823 52 267 0.9 7.0 0.00 5.43 0.00 85 1012.6
20260506224318 52 246 3.5 9.6 0.00 5.43 0.00 84 1012.6
20260506223837 53 269 7.0 11.3 0.00 5.43 0.00 83 1012.5
20260506223315 53 319 7.0 15.6 0.00 5.43 0.00 82 1012.4
20260506222833 53 305 6.1 15.6 0.00 5.43 0.00 81 1012.5
20260506222330 53 326 8.7 15.6 0.00 5.43 0.00 80 1012.6
20260506221827 53 312 7.8 12.2 0.00 5.43 0.00 81 1012.7
20260506221322 52 5 5.2 10.4 0.00 5.43 0.00 83 1012.8
20260506220840 52 32 7.0 9.6 0.00 5.43 0.00 84 1012.7
20260506220337 52 313 4.3 12.2 0.00 5.43 0.00 83 1012.7
20260506215826 53 29 7.0 12.2 0.00 5.55 1.38 83 1012.7
20260506215343 53 13 7.8 10.4 0.00 5.55 1.38 82 1012.8
20260506214820 53 330 3.5 9.6 0.00 5.55 1.38 81 1012.8
20260506214318 53 327 6.1 13.0 0.00 5.55 1.38 80 1012.7
20260506213844 54 349 3.5 13.0 0.00 5.55 1.38 80 1012.6
20260506213321 54 303 5.2 12.2 0.00 5.55 1.38 80 1012.7
20260506212820 54 334 6.1 11.3 0.00 5.55 1.38 79 1012.6
20260506212319 54 19 6.1 9.6 0.00 5.55 1.38 79 1012.7
20260506211819 54 19 4.3 10.4 0.00 5.55 1.38 79 1012.7
20260506211336 54 5 5.2 10.4 0.00 5.55 1.38 78 1012.7
20260506210853 55 318 4.3 9.6 0.00 5.55 1.38 78 1012.6
20260506210351 54 350 4.3 11.3 0.00 5.55 1.38 79 1012.5
20260506205828 54 355 5.2 11.3 0.00 5.55 1.38 82 1012.7
20260506205325 53 351 1.7 9.6 0.00 5.55 1.38 83 1012.4
20260506204823 54 9 4.3 11.3 0.00 5.55 1.38 83 1012.6
20260506204347 54 269 8.7 12.2 0.00 5.55 1.38 83 1012.7
20260506203824 54 306 5.2 13.0 0.00 5.55 1.38 83 1012.6
20260506203321 53 281 7.8 13.0 0.00 5.55 1.38 84 1012.5
20260506202835 53 23 7.0 10.4 0.00 5.55 1.38 83 1012.5
20260506202350 53 355 4.3 9.6 0.00 5.55 1.38 81 1012.6
20260506201826 54 355 4.3 11.3 0.00 5.55 1.38 80 1012.5
20260506201324 54 304 7.0 10.4 0.00 5.55 1.38 79 1012.4
20260506200823 54 302 7.0 13.0 0.00 5.55 1.38 80 1012.4
20260506200320 54 286 5.2 16.5 0.00 5.55 1.38 83 1012.4
20260506195822 54 295 6.1 20.9 0.00 5.55 1.38 88 1012.3
20260506195319 54 265 13.0 20.9 0.00 5.55 1.38 89 1012.3
20260506194837 54 285 12.2 20.9 0.00 5.55 1.38 88 1012.0
20260506194340 53 290 11.3 20.9 0.00 5.55 1.38 87 1011.9
20260506193834 54 305 7.8 13.0 0.00 5.55 1.38 85 1011.6
20260506193334 54 262 6.1 12.2 0.00 5.55 1.38 84 1011.7
20260506192831 54 311 7.8 16.5 0.00 5.55 1.38 83 1011.7
20260506192325 54 306 9.6 16.5 0.00 5.55 1.38 82 1011.7
20260506191820 54 306 6.1 13.0 0.00 5.55 1.38 80 1011.6
20260506191317 54 309 4.3 13.0 0.00 5.55 1.38 81 1011.5
20260506190839 54 281 5.2 12.2 0.00 5.55 1.38 81 1011.6
20260506190335 54 305 7.8 12.2 0.00 5.55 1.38 80 1011.5
20260506185835 54 317 7.8 12.2 0.20 5.55 1.38 80 1011.4
20260506185332 54 313 7.8 14.8 0.28 5.55 1.38 80 1011.2
20260506184851 54 323 9.6 14.8 0.31 5.55 1.38 79 1011.2
20260506184326 54 355 4.3 13.9 0.39 5.55 1.38 80 1011.3
20260506183831 54 13 8.7 14.8 0.59 5.55 1.38 81 1011.1
20260506183332 54 355 8.7 16.5 1.22 5.55 1.38 81 1010.9
20260506182829 54 323 11.3 20.9 1.77 5.55 1.38 81 1011.0
20260506182329 54 336 13.9 20.9 2.60 5.55 1.38 82 1011.1
20260506181826 53 346 12.2 20.0 2.64 5.55 1.38 84 1011.0
20260506181341 53 316 7.8 17.4 2.72 5.55 1.38 85 1011.0
20260506180819 53 305 11.3 17.4 2.72 5.55 1.38 87 1010.8
20260506180317 52 325 8.7 15.6 2.68 5.51 1.37 90 1010.6
20260506175834 51 342 6.1 15.6 2.44 5.28 1.31 93 1010.8
20260506175331 51 315 2.6 10.4 2.44 5.28 1.31 92 1010.9
20260506174828 51 340 7.0 11.3 2.40 5.24 1.30 92 1010.4
20260506174324 50 349 7.8 12.2 2.28 5.12 1.27 92 1010.3
20260506174038 50 344 9.6 13.0 2.17 5.00 1.24 92 1010.1
20260506172318 53 269 11.3 19.1 0.08 2.91 0.71 86 1009.3
20260506171818 55 290 15.6 19.1 0.08 2.91 0.71 83 1009.1
20260506171315 58 294 10.4 15.6 0.00 2.83 0.69 86 1009.1
20260506170832 59 294 5.2 17.4 0.00 2.83 0.69 84 1008.6
20260506170330 59 174 4.3 16.5 0.00 2.83 0.69 82 1008.1
20260506165828 59 337 10.4 16.5 0.00 2.87 0.69 81 1007.9
20260506165347 58 26 7.8 14.8 0.00 2.87 0.69 83 1008.0
20260506164841 58 24 3.5 9.6 0.00 2.87 0.69 84 1008.1
20260506164340 58 38 6.1 9.6 0.00 2.87 0.69 84 1008.2
20260506163816 59 219 3.5 11.3 0.00 2.87 0.69 81 1008.3
20260506163334 59 310 7.8 11.3 0.00 2.87 0.69 81 1008.0
20260506162834 59 36 7.0 9.6 0.00 2.87 0.69 80 1008.0
20260506162352 59 30 6.1 8.7 0.00 2.87 0.69 78 1008.1
20260506161850 59 27 6.1 8.7 0.00 2.87 0.69 79 1008.3
20260506161328 59 50 2.6 6.1 0.00 2.87 0.69 81 1008.4
20260506160847 59 238 0.0 1.7 0.00 2.87 0.69 79 1008.5
20260506160325 59 238 0.9 3.5 0.00 2.99 0.69 80 1008.6
20260506155822 60 238 2.6 7.0 0.00 2.99 0.69 78 1008.6
20260506155322 60 351 5.2 8.7 0.00 2.99 0.69 76 1008.4
20260506154820 60 60 5.2 8.7 0.00 2.99 0.69 76 1008.3
20260506154318 60 24 2.6 8.7 0.00 2.99 0.69 76 1008.3
20260506153816 60 26 4.3 8.7 0.00 2.99 0.69 77 1008.4
20260506153333 59 47 1.7 7.0 0.00 2.99 0.69 81 1008.5
20260506152832 59 287 2.6 8.7 0.00 2.99 0.69 79 1008.6
20260506152328 59 49 4.3 9.6 0.00 2.99 0.69 78 1008.5
20260506151825 59 41 6.1 9.6 0.00 2.99 0.69 79 1008.6
20260506151349 59 17 7.0 11.3 0.00 2.99 0.69 79 1008.6
20260506150825 59 21 6.1 11.3 0.00 2.99 0.69 79 1008.7
20260506150323 59 44 5.2 8.7 0.00 3.03 0.69 80 1008.9
20260506145820 59 25 5.2 9.6 0.00 3.03 0.69 81 1008.8
20260506145318 59 103 5.2 9.6 0.00 3.03 0.69 80 1008.8
20260506144834 59 53 4.3 9.6 0.00 3.03 0.69 80 1009.0
20260506144332 58 351 5.2 8.7 0.00 3.03 0.69 81 1009.1
20260506143831 58 261 2.6 10.4 0.00 3.03 0.69 83 1009.2
20260506143328 58 44 6.1 11.3 0.00 3.03 0.69 79 1009.2
20260506142824 58 22 7.0 11.3 0.00 3.03 0.69 81 1009.4
20260506142323 58 53 6.1 9.6 0.00 3.03 0.69 82 1009.5
20260506141849 59 53 3.5 8.7 0.00 3.03 0.69 80 1009.6
20260506141322 58 22 4.3 8.7 0.00 3.03 0.69 80 1009.7
20260506140820 58 45 5.2 10.4 0.00 3.03 0.69 82 1009.7
20260506140337 57 28 7.0 10.4 0.00 3.03 0.69 81 1009.8
20260506135856 58 351 6.1 10.4 0.00 3.07 0.69 82 1009.7
20260506135332 58 69 5.2 10.4 0.00 3.07 0.69 83 1009.9
20260506134829 58 63 4.3 11.3 0.00 3.07 0.69 81 1009.9
20260506134328 58 23 5.2 11.3 0.00 3.07 0.69 80 1010.0
20260506133826 57 33 3.5 8.7 0.00 3.07 0.69 82 1010.1
20260506133319 57 5 4.3 9.6 0.00 3.07 0.69 80 1010.1
20260506132901 57 9 7.0 9.6 0.00 3.07 0.69 81 1010.1
20260506132336 57 17 4.3 11.3 0.00 3.07 0.69 82 1010.0
20260506131832 57 5 7.0 12.2 0.00 3.07 0.69 83 1010.2
20260506131330 56 22 8.7 13.0 0.00 3.07 0.69 84 1010.1
20260506130827 56 42 9.6 13.0 0.00 3.07 0.69 85 1010.2
20260506130324 55 20 8.7 13.0 0.00 3.15 0.69 86 1010.2
20260506125823 55 360 7.8 13.0 0.00 3.15 0.69 87 1010.3
20260506125340 55 24 9.6 13.0 0.00 3.15 0.69 87 1010.2
20260506124819 54 13 9.6 11.3 0.00 3.15 0.69 89 1010.1
20260506124338 55 350 5.2 11.3 0.00 3.15 0.69 89 1010.2
20260506123833 54 16 7.0 11.3 0.00 3.15 0.69 91 1010.1
20260506123331 55 32 6.1 11.3 0.00 3.15 0.69 91 1010.3
20260506122826 55 14 7.0 11.3 0.00 3.15 0.69 91 1010.3
20260506122322 55 17 3.5 10.4 0.04 3.15 0.69 92 1010.3
20260506121819 55 69 7.0 11.3 0.08 3.15 0.69 93 1010.2
20260506121316 55 44 1.7 7.8 0.08 3.15 0.69 95 1010.4
20260506120834 54 351 1.7 5.2 0.12 3.15 0.69 95 1010.4
20260506120331 54 223 1.7 5.2 0.20 3.15 0.69 95 1010.5
20260506115849 54 244 3.5 9.6 0.31 3.15 0.69 95 1010.5
20260506115326 53 35 4.3 9.6 0.35 3.15 0.69 95 1010.5
20260506114846 53 59 1.7 7.8 0.39 3.15 0.69 96 1010.6
20260506114319 53 16 4.3 7.8 0.63 3.15 0.69 96 1010.5
20260506113817 53 5 0.9 7.8 0.71 3.15 0.69 96 1010.6
20260506113317 52 74 1.7 3.5 0.91 3.15 0.69 96 1010.8
20260506112814 52 74 0.9 4.3 1.02 3.11 0.68 96 1010.8
20260506112333 53 74 1.7 4.3 1.14 3.11 0.68 96 1010.7
20260506111830 53 169 0.0 6.1 1.18 3.11 0.68 96 1010.7
20260506111328 53 252 2.6 8.7 1.18 3.07 0.67 95 1010.6
20260506110829 52 260 3.5 8.7 1.14 3.03 0.66 95 1010.6
20260506110325 53 50 3.5 8.7 1.06 2.95 0.64 95 1010.6
20260506105830 53 245 0.9 3.5 0.98 2.83 0.61 95 1010.7
20260506105327 53 136 0.0 2.6 0.98 2.80 0.60 95 1010.4
20260506104827 53 248 0.9 6.1 1.02 2.76 0.59 95 1010.8
20260506104321 53 234 5.2 6.1 0.83 2.52 0.53 95 1010.7
20260506103841 53 336 1.7 9.6 0.75 2.44 0.51 94 1010.6
20260506103338 53 148 2.6 10.4 0.55 2.24 0.46 94 1010.7
20260506102836 53 123 0.0 2.6 0.43 2.09 0.42 93 1010.7
20260506102331 53 300 0.0 3.5 0.35 1.97 0.39 93 1010.9
20260506101830 53 300 0.0 3.5 0.31 1.93 0.38 93 1010.7
20260506101329 53 325 2.6 4.3 0.28 1.89 0.37 93 1010.8
20260506100848 53 310 1.7 4.3 0.28 1.89 0.37 93 1010.9
20260506100346 53 284 3.5 6.1 0.24 1.85 0.36 93 1010.9
20260506095823 53 275 3.5 5.2 0.24 1.89 0.36 93 1010.9
20260506095318 53 293 4.3 6.1 0.16 1.81 0.34 92 1011.0
20260506094817 54 274 2.6 4.3 0.12 1.77 0.33 91 1011.0
20260506094315 54 263 1.7 5.2 0.08 1.73 0.32 89 1010.7
20260506093843 54 32 2.6 6.1 0.08 1.73 0.32 88 1010.5
20260506093320 54 15 1.7 7.8 0.08 1.73 0.32 88 1010.4
20260506092837 54 315 3.5 8.7 0.00 1.65 0.30 87 1010.6
20260506092355 54 310 4.3 13.0 0.00 1.65 0.30 86 1010.6
20260506091849 55 296 7.0 13.0 0.00 1.65 0.30 85 1010.3
20260506091345 55 298 9.6 13.0 0.04 1.65 0.30 84 1010.3
20260506090842 55 351 7.8 12.2 0.04 1.65 0.30 85 1010.3
20260506090317 54 360 7.8 12.2 0.08 1.69 0.30 86 1010.4
20260506085815 54 298 5.2 13.9 0.12 1.69 0.30 86 1010.3
20260506085331 54 308 7.0 13.9 0.12 1.69 0.30 86 1010.5
20260506084829 54 309 8.7 14.8 0.12 1.69 0.30 85 1010.5
20260506084328 54 344 6.1 14.8 0.12 1.69 0.30 86 1010.6
20260506083827 54 339 7.8 13.0 0.12 1.69 0.30 84 1010.7
20260506083327 54 306 9.6 14.8 0.12 1.69 0.30 84 1010.7
20260506082823 54 313 9.6 15.6 0.16 1.69 0.30 86 1010.7
20260506082320 54 333 8.7 15.6 0.20 1.69 0.30 88 1010.7
20260506081818 54 360 8.7 13.0 0.20 1.69 0.30 89 1010.6
20260506081313 53 326 9.6 14.8 0.16 1.65 0.29 90 1010.7
20260506080831 53 21 7.8 14.8 0.16 1.65 0.29 92 1010.8
20260506080328 53 309 7.8 13.9 0.12 1.61 0.28 94 1010.8
20260506073324 54 278 7.8 14.8 0.08 1.57 0.26 94 1010.5
20260506072821 54 290 6.1 16.5 0.08 1.57 0.26 93 1010.7
20260506072321 54 297 11.3 16.5 0.04 1.54 0.25 93 1010.7
20260506071819 54 288 7.8 13.9 0.04 1.54 0.25 93 1010.6
20260506071316 53 336 7.0 12.2 0.04 1.54 0.25 94 1010.7
20260506070814 53 299 6.1 14.8 0.08 1.54 0.25 94 1010.8
20260506070330 53 296 7.0 14.8 0.12 1.54 0.25 95 1010.9
20260506062318 54 306 5.2 11.3 0.24 1.50 0.24 95 1011.0
20260506061815 54 339 6.1 10.4 0.24 1.50 0.24 95 1011.1
20260506061333 54 263 2.6 9.6 0.24 1.50 0.24 94 1011.1
20260506060831 54 313 4.3 9.6 0.28 1.50 0.24 94 1011.2
20260506060329 54 298 2.6 8.7 0.24 1.42 0.22 94 1011.0
20260506051323 54 43 5.2 10.4 0.39 1.26 0.18 96 1010.9
20260506050821 54 13 7.0 10.4 0.35 1.22 0.17 97 1010.7
20260506050319 53 32 4.3 7.8 0.31 1.18 0.16 97 1010.9
20260506044833 53 280 0.0 0.0 0.20 1.06 0.13 97 1011.4
20260506044332 53 280 0.0 0.0 0.16 1.02 0.12 97 1011.4
20260506043829 54 273 0.0 0.0 0.12 0.98 0.11 97 1011.4
20260506043327 54 248 0.0 0.0 0.08 0.94 0.10 97 1011.4
20260506042824 54 248 0.0 0.0 0.04 0.91 0.09 97 1011.2
20260506042321 54 248 0.0 0.0 0.04 0.91 0.09 97 1011.2
20260506041822 54 248 0.0 0.0 0.00 0.87 0.08 97 1011.1
20260506041318 54 248 0.0 0.0 0.00 0.87 0.08 97 1011.1
20260506040818 54 248 0.0 0.0 0.00 0.87 0.08 97 1011.1
20260506040336 54 248 0.0 0.0 0.00 0.87 0.08 97 1011.1
20260506035834 53 248 0.0 0.0 0.00 0.87 0.08 97 1011.0
20260506035352 53 248 0.0 0.0 0.00 0.87 0.08 97 1010.9
20260506034849 53 248 0.0 0.0 0.00 0.87 0.08 97 1010.9
20260506034346 54 226 0.0 0.0 0.00 0.87 0.08 97 1011.0
20260506033824 54 226 0.0 0.0 0.00 0.87 0.08 97 1010.9
20260506033324 54 226 0.0 2.6 0.00 0.87 0.08 98 1010.8
20260506032821 54 301 0.9 3.5 0.00 0.87 0.08 98 1010.9
20260506032319 54 282 1.7 8.7 0.00 0.87 0.08 98 1011.0
20260506031837 54 306 3.5 8.7 0.00 0.87 0.08 98 1010.9
20260506031314 54 45 2.6 5.2 0.00 0.87 0.08 98 1011.0
20260506030858 53 82 1.7 4.3 0.00 0.87 0.08 98 1011.2
20260506030335 53 284 0.0 0.0 0.04 0.87 0.08 98 1011.3
20260506025830 53 283 0.0 0.0 0.04 0.87 0.08 98 1011.4
20260506025327 53 250 0.0 0.0 0.08 0.87 0.08 98 1011.6
20260506024827 53 200 0.0 0.0 0.08 0.87 0.08 98 1011.7
20260506024325 54 200 0.0 0.0 0.08 0.87 0.08 98 1011.8
20260506023823 54 200 0.0 0.0 0.08 0.87 0.08 98 1011.8
20260506023321 53 52 0.0 1.7 0.08 0.87 0.08 98 1011.8
20260506022821 53 52 0.9 1.7 0.08 0.87 0.08 98 1011.6
20260506022318 53 52 0.0 2.6 0.08 0.87 0.08 98 1011.7
20260506021816 54 52 1.7 2.6 0.08 0.87 0.08 98 1011.8
20260506021314 54 52 0.9 1.7 0.08 0.87 0.08 98 1011.9
20260506020828 54 52 0.0 1.7 0.08 0.87 0.08 98 1012.0
20260506020324 54 52 0.0 0.9 0.04 0.83 0.07 98 1012.0